EA4TN Weather Reports


time (UTC)temp
C
wind
direction
speed
KPH
gust
KPH
rain 1hr
cm
rain 24hr
cm
rain mn
cm
humidity
%
barometer
mb
20260508065017 8 46 4.8 9.7 0.00 1.17 0.00 90 1011.6
20260508064017 8 47 6.4 12.9 0.00 1.17 0.00 90 1011.9
20260508063017 8 50 6.4 14.5 0.00 1.17 0.00 90 1011.8
20260508062017 8 44 6.4 12.9 0.00 1.17 0.00 90 1011.8
20260508061016 8 53 6.4 12.9 0.00 1.17 0.00 90 1011.6
20260508060017 8 50 6.4 11.3 0.00 1.17 0.00 90 1011.5
20260508055016 8 52 4.8 12.9 0.00 1.17 0.00 89 1011.6
20260508054017 8 50 6.4 11.3 0.00 1.17 0.00 89 1011.6
20260508053017 8 49 4.8 9.7 0.00 1.17 0.00 89 1011.7
20260508052017 8 50 4.8 9.7 0.00 1.17 0.00 89 1011.6
20260508051017 8 94 1.6 9.7 0.00 1.17 0.00 89 1011.3
20260508050017 8 56 3.2 8.0 0.00 1.17 0.00 89 1011.2
20260508045017 8 80 3.2 8.0 0.00 1.17 0.00 89 1011.1
20260508044017 8 67 3.2 8.0 0.00 1.17 0.00 89 1010.8
20260508043020 8 60 3.2 8.0 0.00 1.17 0.00 89 1010.8
20260508042017 8 80 4.8 6.4 0.00 1.17 0.00 89 1010.7
20260508041017 8 73 3.2 6.4 0.00 1.17 0.00 88 1010.6
20260508040017 8 69 4.8 9.7 0.00 1.17 0.00 88 1010.5
20260508035017 8 77 3.2 6.4 0.00 1.17 0.00 88 1010.5
20260508034017 8 63 3.2 8.0 0.00 1.17 0.00 88 1010.6
20260508033017 8 46 3.2 8.0 0.00 1.17 0.00 89 1010.6
20260508032017 8 49 4.8 8.0 0.00 1.17 0.00 89 1010.6
20260508031017 8 63 3.2 9.7 0.00 1.17 0.00 89 1010.8
20260508030017 8 54 3.2 9.7 0.00 1.17 0.00 89 1010.6
20260508025017 8 81 3.2 8.0 0.00 1.17 0.00 90 1010.5
20260508024017 8 94 3.2 11.3 0.00 1.17 0.00 90 1010.5
20260508023017 8 60 4.8 11.3 0.00 1.17 0.00 90 1010.5
20260508022017 8 46 8.0 14.5 0.00 1.17 0.00 89 1010.6
20260508021017 8 58 6.4 11.3 0.00 1.17 0.00 89 1010.4
20260508020017 8 57 6.4 14.5 0.00 1.17 0.00 89 1010.6
20260508015017 9 60 6.4 11.3 0.00 1.17 0.00 89 1010.7
20260508014017 9 62 4.8 11.3 0.00 1.17 0.00 89 1010.6
20260508013017 9 50 4.8 11.3 0.00 1.17 0.00 89 1010.8
20260508012015 9 48 8.0 12.9 0.00 1.17 0.00 89 1010.9
20260508011017 9 69 3.2 11.3 0.00 1.17 0.00 89 1011.6
20260508010017 9 50 6.4 12.9 0.00 1.17 0.00 89 1011.7
20260508005017 9 50 8.0 12.9 0.00 1.17 0.00 89 1011.9
20260508004037 10 47 4.8 9.7 0.00 1.17 0.00 88 1012.1
20260508003037 10 40 3.2 8.0 0.00 1.17 0.00 87 1012.2
20260508002037 10 77 3.2 6.4 0.00 1.17 0.00 86 1012.3
20260508001018 10 77 3.2 4.8 0.00 1.17 0.00 86 1012.7
20260508000017 10 78 3.2 6.4 0.00 1.17 0.00 86 1012.8
20260507235017 10 79 1.6 6.4 0.00 1.17 1.17 85 1012.7
20260507234017 10 79 1.6 4.8 0.00 1.17 1.17 86 1012.8
20260507233017 10 79 1.6 3.2 0.00 1.17 1.17 87 1012.9
20260507232016 10 79 1.6 4.8 0.00 1.17 1.17 87 1013.1
20260507231017 10 79 3.2 6.4 0.00 1.17 1.17 87 1013.1
20260507230016 10 79 1.6 3.2 0.00 1.17 1.17 87 1013.1
20260507225016 10 81 3.2 6.4 0.00 1.17 1.17 87 1013.2
20260507224016 10 98 1.6 3.2 0.00 1.17 1.17 87 1013.1
20260507223016 10 98 1.6 3.2 0.00 1.17 1.17 87 1013.1
20260507222017 10 98 1.6 4.8 0.00 1.17 1.17 88 1013.1
20260507221016 10 105 0.0 3.2 0.00 1.17 1.17 87 1013.0
20260507220016 10 0.0 0.0 0.00 1.17 1.17 87 1013.1
20260507215016 10 0.0 1.6 0.00 1.17 1.17 87 1013.0
20260507214016 10 0.0 0.0 0.00 1.17 1.17 88 1012.9
20260507213016 10 0.0 0.0 0.00 1.17 1.17 87 1012.7
20260507212017 10 0.0 0.0 0.00 1.17 1.17 86 1012.7
20260507211017 11 0.0 0.0 0.00 1.17 1.17 84 1012.4
20260507210016 11 0.0 0.0 0.00 1.17 1.17 82 1012.3
20260507205017 11 0.0 1.6 0.00 1.17 1.17 79 1012.1
20260507204017 12 105 0.0 3.2 0.00 1.17 1.17 79 1011.8
20260507203016 12 105 1.6 4.8 0.00 1.17 1.17 78 1011.7
20260507202017 12 106 0.0 3.2 0.00 1.17 1.17 78 1011.6
20260507201017 12 93 3.2 9.7 0.00 1.17 1.17 77 1011.4
20260507200016 12 108 3.2 8.0 0.00 1.17 1.17 77 1011.3
20260507195016 13 79 3.2 6.4 0.00 1.17 1.17 76 1011.2
20260507194016 13 101 1.6 3.2 0.00 1.17 1.17 75 1011.0
20260507193017 13 105 0.0 6.4 0.00 1.17 1.17 75 1010.9
20260507192017 13 115 0.0 6.4 0.00 1.17 1.17 74 1010.8
20260507191017 13 50 1.6 4.8 0.00 1.17 1.17 74 1010.8
20260507190017 14 49 3.2 4.8 0.00 1.17 1.17 73 1010.5
20260507185017 14 49 3.2 6.4 0.00 1.17 1.17 72 1010.2
20260507184016 15 49 3.2 8.0 0.00 1.17 1.17 71 1010.2
20260507183037 15 52 6.4 9.7 0.00 1.17 1.17 70 1010.0
20260507182017 15 56 3.2 8.0 0.00 1.17 1.17 66 1010.1
20260507181037 15 62 3.2 8.0 0.00 1.17 1.17 68 1010.1
20260507180017 15 57 3.2 8.0 0.00 1.17 1.17 70 1009.9
20260507175017 15 45 3.2 8.0 0.00 1.17 1.17 71 1009.8
20260507174017 15 66 3.2 8.0 0.00 1.17 1.17 70 1009.9
20260507173017 15 66 4.8 9.7 0.00 1.17 1.17 70 1009.8
20260507172016 14 62 4.8 9.7 0.00 1.17 1.17 73 1009.8
20260507171037 14 59 4.8 11.3 0.00 1.17 1.17 76 1009.8
20260507170017 13 64 6.4 12.9 0.03 1.17 1.17 79 1009.7
20260507165017 12 58 8.0 14.5 0.05 1.17 1.17 81 1009.5
20260507164016 12 77 8.0 14.5 0.05 1.17 1.17 83 1009.5
20260507163016 11 69 4.8 9.7 0.08 1.17 1.17 86 1009.4
20260507162017 10 63 6.4 12.9 0.13 1.17 1.17 87 1009.2
20260507161017 11 65 8.0 12.9 0.13 1.17 1.17 86 1009.3
20260507160018 11 99 4.8 20.9 0.10 1.14 1.14 88 1009.8
20260507155017 11 113 11.3 17.7 0.08 1.12 1.12 89 1010.3
20260507154017 11 273 3.2 9.7 0.05 1.09 1.09 93 1010.5
20260507153017 11 272 4.8 11.3 0.05 1.09 1.09 93 1010.5
20260507152017 11 336 6.4 14.5 0.00 1.04 1.04 94 1010.2
20260507151017 11 357 8.0 16.1 0.00 1.04 1.04 93 1010.0
20260507150017 11 10 8.0 17.7 0.00 1.04 1.04 93 1010.2
20260507145037 11 23 9.7 20.9 0.00 1.04 1.04 92 1010.2
20260507144017 12 39 9.7 19.3 0.00 1.04 1.04 93 1010.0
20260507143017 12 35 11.3 22.5 0.03 1.04 1.04 94 1010.1
20260507142037 12 34 11.3 20.9 0.15 1.04 1.04 94 1009.9
20260507141017 12 45 8.0 16.1 0.20 1.04 1.04 94 1009.8
20260507140017 12 49 8.0 16.1 0.23 1.04 1.04 95 1009.8
20260507135017 11 62 8.0 20.9 0.33 1.04 1.04 95 1009.7
20260507134017 10 49 14.5 20.9 1.04 1.04 1.04 95 1009.7
20260507133017 9 30 6.4 24.1 1.02 1.02 1.02 93 1010.0
20260507132017 8 23 16.1 29.0 0.89 0.89 0.89 93 1009.7
20260507131017 9 21 9.7 17.7 0.84 0.84 0.84 92 1010.2
20260507130017 10 37 9.7 19.3 0.81 0.81 0.81 90 1009.9
20260507125037 12 358 9.7 27.4 0.71 0.71 0.71 77 1010.1
20260507124017 14 117 4.8 20.9 0.00 0.00 0.00 67 1009.6
20260507123037 14 102 11.3 22.5 0.00 0.00 0.00 67 1009.6
20260507122017 15 98 9.7 22.5 0.00 0.00 0.00 65 1010.0
20260507121017 15 64 8.0 16.1 0.00 0.00 0.00 65 1010.0
20260507120017 15 73 4.8 11.3 0.00 0.00 0.00 68 1009.9
20260507115017 15 117 3.2 14.5 0.00 0.00 0.00 68 1009.9
20260507114017 16 101 4.8 9.7 0.00 0.00 0.00 68 1010.3
20260507113037 17 46 3.2 6.4 0.00 0.00 0.00 64 1010.3
20260507112017 17 95 1.6 8.0 0.00 0.00 0.00 61 1010.4
20260507111017 17 32 1.6 8.0 0.00 0.00 0.00 61 1010.7
20260507110037 17 6 3.2 8.0 0.00 0.00 0.00 62 1010.8
20260507105017 17 41 4.8 9.7 0.00 0.00 0.00 62 1010.9
20260507104017 17 71 3.2 6.4 0.00 0.00 0.00 63 1011.0
20260507103017 16 112 1.6 6.4 0.00 0.00 0.00 63 1011.2
20260507102017 16 59 1.6 4.8 0.00 0.00 0.00 65 1011.3
20260507101015 16 55 3.2 9.7 0.00 0.00 0.00 66 1011.4
20260507100017 15 39 3.2 8.0 0.00 0.00 0.00 68 1011.3
20260507095015 15 54 4.8 9.7 0.00 0.00 0.00 68 1011.4
20260507094017 15 49 4.8 8.0 0.00 0.00 0.00 69 1011.4
20260507093015 15 45 3.2 9.7 0.00 0.00 0.00 69 1011.5
20260507092017 15 64 3.2 8.0 0.00 0.00 0.00 69 1011.5
20260507091017 14 17 3.2 9.7 0.00 0.00 0.00 71 1011.5
20260507090017 14 34 3.2 8.0 0.00 0.00 0.00 71 1011.6
20260507085017 13 49 3.2 11.3 0.00 0.00 0.00 73 1011.4
20260507084037 13 31 3.2 9.7 0.00 0.00 0.00 74 1011.4
20260507083017 13 35 3.2 9.7 0.00 0.00 0.00 75 1011.4
20260507082017 12 358 3.2 8.0 0.00 0.00 0.00 77 1011.5
20260507081017 12 343 1.6 6.4 0.00 0.00 0.00 80 1011.6
20260507080015 12 274 1.6 6.4 0.00 0.00 0.00 80 1011.5
20260507075016 12 67 4.8 16.1 0.00 0.00 0.00 80 1011.1
20260507074035 12 74 6.4 14.5 0.00 0.00 0.00 77 1011.3
20260507073015 11 52 6.4 11.3 0.00 0.00 0.00 77 1011.3
20260507072015 11 46 6.4 11.3 0.00 0.00 0.00 77 1011.3
20260507071035 11 41 4.8 9.7 0.00 0.00 0.00 77 1011.8
20260507070015 11 65 3.2 9.7 0.00 0.00 0.00 78 1011.8